Regional Weather Roundup
Issued by NWS

Home | Current Version | Previous Version | Text Only | Print | Product List | Glossary Off
Versions: 1 2 3 4 5 6 7 8 9 10 11 12 13 14 15 16 17 18 19 20 21 22 23 24 25 26 27 28 29 30 31 32 33 34 35 36 37 38 39 40 41 42 43 44 45 46 47 48 49 50

000
ASUS43 KMPX 141510
RWRMN
WEATHER ROUNDUP FOR MINNESOTA
NATIONAL WEATHER SERVICE TWIN CITIES/CHANHASSEN MN
900 AM CST THU DEC 14 2017


NOTE: "FAIR" INDICATES FEW OR NO CLOUDS BELOW 12,000 FEET WITH NO
SIGNIFICANT WEATHER AND/OR OBSTRUCTIONS TO VISIBILITY. N/A MEANS
CURRENT SKY AND/OR WEATHER CONDITIONS ARE NOT AVAILABLE.

MNZ060>063-068>070-141600-
   Twin Cities Metro

CITY           SKY/WX    TMP DP  RH WIND       PRES   REMARKS
TWIN CITIES    CLOUDY    18  14  84 SW5       30.05R WCI  11
ST PAUL        CLOUDY    17  15  92 CALM      30.06R
CRYSTAL        CLOUDY    17  11  77 CALM      30.03R
BLAINE         MOCLDY    18  16  93 SW5       30.02R WCI  11
LAKEVILLE      CLOUDY    12  10  92 SW3       30.04R
EDEN PRAIRIE   CLOUDY    15  13  91 SW3       30.04R
SOUTH ST PAUL  CLOUDY    17  14  87 CALM      30.05R
LAKE ELMO      CLOUDY    18  14  86 CALM      30.04S
$$
MNZ001>005-007-008-013>017-022>024-027-028-141600-
   Northwest Minnesota

CITY           SKY/WX    TMP DP  RH WIND       PRES   REMARKS
BEMIDJI        FLURRIES  14  11  88 W7        29.97R WCI   4
HALLOCK        CLOUDY    19  16  86 N17       30.04R WCI   4
ROSEAU         FLURRIES   9   3  78 NW6       30.00R WCI  -1
WARROAD        CLOUDY     9   5  85 NW7       29.99R WCI  -3
THIEF RVR FALL CLOUDY    16  14  93 NW9       30.01R WCI   4
CROOKSTON      LGT SNOW  19  18  93 NW9       30.04R WCI   9
FOSSTON        FLURRIES  16  12  86 W7        30.00R WCI   6
DETROIT LAKES  CLOUDY    18  18 100 NW3       30.00S
MOORHEAD       CLOUDY    19  16  86 CALM      30.05R
PARK RAPIDS    CLOUDY    14  11  87 W6        29.97R WCI   5
MAHNOMEN       CLOUDY    16  14  92 W6        30.00R WCI   7
$$
MNZ006-009>011-018-025>026-141600-
   North Central Minnesota

CITY           SKY/WX    TMP DP  RH WIND       PRES   REMARKS
BAUDETTE       PTCLDY     9   7  92 W6        29.96R WCI  -1
FLAG ISLAND    CLOUDY     7   3  85 NW8       29.97R WCI  -6
INTL FALLS     LGT SNOW  10   6  84 CALM      29.96R VSB 3/4
WASKISH        FLURRIES  12  10  92 W7        29.97R WCI   2
BIG FORK       LGT SNOW  12   9  85 CALM      29.95R VSB 1
LONGVILLE      LGT SNOW  14  10  85 W3        29.97S
GRAND RAPIDS   LGT SNOW  14  10  84 NW3       29.98R FOG
CRANE LAKE     LGT SNOW  10   9  92 CALM      29.98R
ORR            LGT SNOW  10   7  85 CALM      29.92S
COOK           LGT SNOW  10   9  92 W3        29.96R
WALKER         LGT SNOW  13  10  88 W5        29.97R WCI   5
$$
MNZ012-019>021-037-141600-
   Northeast Minnesota

CITY           SKY/WX    TMP DP  RH WIND       PRES   REMARKS
DULUTH         FLURRIES  14  12  92 W7        29.94R WCI   4
ELY            LGT SNOW  12  10  92 NW3       29.93R
HIBBING        LGT SNOW  12   9  87 W6        29.95S FOG     WCI   3
EVELETH        LGT SNOW  14   9  82 W3        29.95S VSB 3/4
DULUTH HARBOR  FLURRIES  18  14  86 W8        30.01R WCI   7
TWO HARBORS    FLURRIES  19  14  79 W5        29.95R WCI  13
SILVER BAY     LGT SNOW   1   0  92 CALM      29.93S
GRAND MARAIS     N/A     16   9  74 CALM      29.98S
G MARAIS ARPRT LGT SNOW   7   3  85 NW3       29.87S
$$
MNZ029>031-032-039>041-046>048-054>057-064-141600-
   West Central Minnesota

CITY           SKY/WX    TMP DP  RH WIND       PRES   REMARKS
FERGUS FALLS   FLURRIES  18  16  93 CALM      30.06R
WHEATON        CLOUDY    21  18  86 CALM      30.05S
MORRIS         CLOUDY    19  18  93 NW3       30.02R
ALEXANDRIA     CLOUDY    15  13  91 NW9       30.00R WCI   3
ELBOW LAKE     CLOUDY    18  16  95 W5        30.03R WCI  11
WADENA         LGT SNOW  12  10  92 NW6       30.00R WCI   3
GLENWOOD       CLOUDY    16  16 100 NW9       30.01R WCI   4
APPLETON         N/A     23  19  86 N3        30.04R
BENSON         CLOUDY    19  16  86 N3        30.04R
ORTONVILLE     CLOUDY    21  18  86 CALM      30.03R
MADISON        CLOUDY    25  21  86 CALM      30.04R
WILLMAR        CLOUDY    19  18  93 NW6       30.04R WCI  11
$$
MNZ033>034-036-042>043-049>051-058-059-141600-
   Central Minnesota

CITY           SKY/WX    TMP DP  RH WIND       PRES   REMARKS
ST CLOUD       CLOUDY    17  15  92 CALM      30.01R
SAUK CENTRE    FLURRIES  16  14  92 W7        30.01R WCI   6
PAYNESVILLE    CLOUDY    18  17  95 W6        30.02R WCI   9
AITKIN         CLOUDY    12   9  85 W3        29.98R
PINE RIVER     LGT SNOW  12   9  85 W3        30.02R
BRAINERD       LGT SNOW  16  12  84 W6        29.99R FOG     WCI   7
STAPLES        FLURRIES  14  12  92 W8        29.99R WCI   3
LONG PRAIRIE   CLOUDY    18  14  86 W8        30.00R WCI   7
LITTLE FALLS   CLOUDY    18  12  79 W8        30.01R WCI   7
LITCHFIELD     CLOUDY    19  18  93 W7        30.02R WCI  10
BUFFALO        CLOUDY    17  13  87 CALM      30.04R
MAPLE LAKE     CLOUDY    18  16  90 CALM      30.03R
HUTCHINSON     CLOUDY    19  16  88 S3        30.03S
$$
MNZ037-044-045-052-053-141600-
   East Central Minnesota

CITY           SKY/WX    TMP DP  RH WIND       PRES   REMARKS
PRINCETON      CLOUDY    18  14  86 CALM      30.02R
MORA           CLOUDY    16  12  86 W6        30.02S WCI   7
CAMBRIDGE      FLURRIES  18  12  79 CALM      30.03R
RUSH CITY      FLURRIES  15  12  87 CALM      30.03R
MOOSE LAKE     FLURRIES  18  12  79 NW5       29.97R WCI  11
HINCKLEY       FLURRIES  18  14  86 W6        30.00S WCI   9
CLOQUET        FLURRIES  14  10  85 NW7       29.96R WCI   4
MCGREGOR       CLOUDY    16  12  86 NW5       29.99R WCI   9
$$
MNZ071>073-080-081-089-090-097-098-141600-
   Southwest Minnesota

CITY           SKY/WX    TMP DP  RH WIND       PRES   REMARKS
MONTEVIDEO     CLOUDY    21  18  86 N6        30.04R WCI  14
GRANITE FALLS  CLOUDY    23  20  87 NW6       30.06R WCI  16
CANBY          CLOUDY    24  21  88 CALM      30.04R
MARSHALL       MOCLDY    22  19  89 CALM      30.03R
REDWOOD FALLS  CLOUDY    21  16  81 NW6       30.03R WCI  13
OLIVIA         CLOUDY    21  18  86 NW3       30.02R
PIPESTONE      CLOUDY    27  25  93 CALM      29.99S
WINDOM           N/A     21  10  63 W5        30.02R WCI  15
WORTHINGTON    CLOUDY    22  19  89 S6        30.02R WCI  14
JACKSON        CLOUDY    21  19  93 MISG      30.03R
TRACY          CLOUDY    23  21  93 CALM      30.02R
SLAYTON        CLOUDY    23  21  93 S6        30.01S WCI  16
$$
MNZ065>067-074>077-082>085-091>093-141600-
   South Central Minnesota

CITY           SKY/WX    TMP DP  RH WIND       PRES   REMARKS
MANKATO        CLOUDY    17  14  88 SE3       30.05R
NEW ULM        CLOUDY    19  16  86 CALM      30.04R
ST JAMES       CLOUDY    21  18  86 CALM      30.05R
FAIRMONT       CLOUDY    20  15  81 S7        30.05R WCI  11
GLENCOE        CLOUDY    18  16  89 S5        30.03S WCI  11
FARIBAULT      PTCLDY    12  10  92 CALM      30.04R FOG
OWATONNA       SUNNY     12  10  92 CALM      30.04R FOG
WASECA         CLOUDY    14  12  92 CALM      30.06R FOG
ALBERT LEA     SUNNY     14  10  85 CALM      30.03R FOG
$$
MNZ078>079-086>088-094>096-141600-
   Southeast Minnesota

CITY           SKY/WX    TMP DP  RH WIND       PRES   REMARKS
ROCHESTER      FOG       11  10  96 S5        30.03R VSB 3/4 WCI   3
RED WING       MOSUNNY   16  10  79 CALM      30.05R FOG
STANTON        CLEAR     10   7  88 CALM      30.04R
DODGE CENTER   SUNNY     12  10  92 CALM      30.02R FOG
WINONA           N/A     16  12  86 CALM      30.08R
AUSTIN         SUNNY     10   9  92 CALM      30.03R
PRESTON        SUNNY     12  10  90 SW5       30.03S WCI   4
$$
ABBREVIATIONS USED IN REMARKS
   TC - TEMPERATURES IN CELSIUS
  WCI - WIND CHILL INDEX
   HX - HEAT INDEX
  VSB - VISIBILITY
$$




USA.gov is the U.S. government's official web portal to all federal, state and local government web resources and services.